| time (UTC) | temp C | wind direction | speed KPH | gust KPH | rain 1hr cm | rain 24hr cm | rain mn cm | humidity % | barometer mb |
| 20260510124532 | 18 | 124 | 1.6 | 4.8 | 0.00 | 0.00 | 0.00 | 39 | 1012.0 |
| 20260510123025 | 17 | 118 | 0.0 | 1.6 | 0.00 | 0.00 | 0.00 | 39 | 1012.1 |
| 20260510121520 | 16 | 44 | 0.0 | 6.4 | 0.00 | 0.00 | 0.00 | 44 | 1012.1 |
| 20260510120015 | 15 | 321 | 0.0 | 0.0 | 0.00 | 0.00 | 0.00 | 48 | 1011.8 |
| 20260510114511 | 13 | 321 | 0.0 | 0.0 | 0.00 | 0.00 | 0.00 | 46 | 1011.7 |
| 20260510113006 | 13 | 321 | 0.0 | 0.0 | 0.00 | 0.00 | 0.00 | 49 | 1011.5 |
| 20260510111503 | 11 | 321 | 0.0 | 0.0 | 0.00 | 0.00 | 0.00 | 49 | 1011.1 |
| 20260510110059 | 11 | 321 | 0.0 | 0.0 | 0.00 | 0.00 | 0.00 | 49 | 1011.0 |
| 20260510104556 | 10 | 266 | 0.0 | 1.6 | 0.00 | 0.00 | 0.00 | 49 | 1010.7 |
| 20260510103053 | 10 | 245 | 0.0 | 0.0 | 0.00 | 0.00 | 0.00 | 50 | 1010.7 |
| 20260510101552 | 9 | 245 | 0.0 | 1.6 | 0.00 | 0.00 | 0.00 | 50 | 1010.3 |
| 20260510100110 | 9 | 245 | 0.0 | 1.6 | 0.00 | 0.00 | 0.00 | 49 | 1010.2 |
| 20260510094555 | 9 | 245 | 0.0 | 1.6 | 0.00 | 0.00 | 0.00 | 49 | 1010.3 |
| 20260510093048 | 9 | 245 | 0.0 | 3.2 | 0.00 | 0.00 | 0.00 | 48 | 1010.3 |
| 20260510091540 | 10 | 13 | 0.0 | 0.0 | 0.00 | 0.00 | 0.00 | 49 | 1010.1 |
| 20260510090038 | 10 | 13 | 0.0 | 3.2 | 0.00 | 0.00 | 0.00 | 49 | 1010.1 |
| 20260510084536 | 10 | 356 | 0.0 | 6.4 | 0.00 | 0.00 | 0.00 | 49 | 1010.1 |
| 20260510083038 | 10 | 10 | 1.6 | 3.2 | 0.00 | 0.00 | 0.00 | 49 | 1010.0 |
| 20260510081530 | 10 | 288 | 0.0 | 0.0 | 0.00 | 0.00 | 0.00 | 48 | 1009.9 |
| 20260510080027 | 10 | 288 | 0.0 | 0.0 | 0.00 | 0.00 | 0.00 | 48 | 1009.7 |
| 20260510074523 | 10 | 288 | 0.0 | 1.6 | 0.00 | 0.00 | 0.00 | 47 | 1009.6 |
| 20260510073022 | 10 | 269 | 0.0 | 0.0 | 0.00 | 0.00 | 0.00 | 45 | 1009.6 |
| 20260510071532 | 10 | 277 | 0.0 | 0.0 | 0.00 | 0.00 | 0.00 | 42 | 1009.5 |
| 20260510070014 | 10 | 310 | 0.0 | 0.0 | 0.00 | 0.00 | 0.00 | 42 | 1009.2 |
| 20260510064511 | 11 | 310 | 0.0 | 0.0 | 0.00 | 0.00 | 0.00 | 42 | 1009.0 |
| 20260510063007 | 11 | 236 | 0.0 | 0.0 | 0.00 | 0.00 | 0.00 | 46 | 1008.9 |
| 20260510061502 | 11 | 6 | 0.0 | 0.0 | 0.00 | 0.00 | 0.00 | 48 | 1008.8 |
| 20260510060100 | 11 | 6 | 0.0 | 0.0 | 0.00 | 0.00 | 0.00 | 50 | 1008.8 |
| 20260510054556 | 12 | 6 | 0.0 | 1.6 | 0.00 | 0.00 | 0.00 | 53 | 1008.8 |
| 20260510053054 | 12 | 6 | 0.0 | 1.6 | 0.00 | 0.00 | 0.00 | 54 | 1008.9 |
| 20260510051550 | 12 | 230 | 0.0 | 0.0 | 0.00 | 0.00 | 0.00 | 53 | 1009.0 |
| 20260510050046 | 13 | 230 | 0.0 | 0.0 | 0.00 | 0.00 | 0.00 | 52 | 1009.0 |
| 20260510044546 | 13 | 287 | 0.0 | 0.0 | 0.00 | 0.00 | 0.00 | 53 | 1009.0 |
| 20260510043042 | 13 | 334 | 0.0 | 3.2 | 0.00 | 0.00 | 0.00 | 54 | 1008.8 |
| 20260510041537 | 13 | 148 | 0.0 | 0.0 | 0.00 | 0.00 | 0.00 | 55 | 1008.8 |
| 20260510040036 | 13 | 148 | 0.0 | 0.0 | 0.00 | 0.00 | 0.00 | 57 | 1008.6 |
| 20260510034539 | 13 | 148 | 0.0 | 0.0 | 0.00 | 0.00 | 0.00 | 59 | 1008.7 |
| 20260510033031 | 13 | 148 | 0.0 | 0.0 | 0.00 | 0.00 | 0.00 | 59 | 1008.6 |
| 20260510031539 | 14 | 148 | 0.0 | 0.0 | 0.00 | 0.00 | 0.00 | 59 | 1008.4 |
| 20260510030026 | 14 | 148 | 0.0 | 0.0 | 0.00 | 0.00 | 0.00 | 60 | 1008.6 |
| 20260510024536 | 15 | 148 | 0.0 | 0.0 | 0.00 | 0.00 | 0.00 | 61 | 1008.4 |
| 20260510023023 | 15 | 148 | 0.0 | 0.0 | 0.00 | 0.00 | 0.00 | 59 | 1008.4 |
| 20260510021523 | 15 | 148 | 0.0 | 0.0 | 0.00 | 0.00 | 0.00 | 59 | 1008.2 |
| 20260510020018 | 16 | 148 | 0.0 | 0.0 | 0.00 | 0.00 | 0.00 | 57 | 1008.0 |
| 20260510014518 | 16 | 148 | 0.0 | 0.0 | 0.00 | 0.00 | 0.00 | 56 | 1007.8 |
| 20260510013014 | 16 | 148 | 0.0 | 0.0 | 0.00 | 0.00 | 0.00 | 55 | 1007.6 |
| 20260510011512 | 17 | 148 | 0.0 | 0.0 | 0.00 | 0.00 | 0.00 | 53 | 1007.3 |
| 20260510010009 | 18 | 148 | 0.0 | 0.0 | 0.00 | 0.00 | 0.00 | 50 | 1007.1 |
| 20260510004508 | 18 | 148 | 0.0 | 0.0 | 0.00 | 0.00 | 0.00 | 48 | 1006.8 |
| 20260510003016 | 19 | 148 | 0.0 | 0.0 | 0.00 | 0.00 | 0.00 | 49 | 1006.7 |
| 20260510001504 | 20 | 153 | 0.0 | 0.0 | 0.00 | 0.00 | 0.00 | 45 | 1006.7 |
| 20260510000108 | 20 | 153 | 0.0 | 0.0 | 0.00 | 0.00 | 0.00 | 43 | 1006.6 |
| 20260509234615 | 20 | 153 | 0.0 | 0.0 | 0.00 | 0.00 | 0.00 | 42 | 1006.5 |
| 20260509233058 | 21 | 153 | 0.0 | 0.0 | 0.00 | 0.00 | 0.00 | 41 | 1006.4 |
| 20260509231556 | 22 | 153 | 0.0 | 0.0 | 0.00 | 0.00 | 0.00 | 39 | 1006.2 |
| 20260509230100 | 22 | 145 | 0.0 | 1.6 | 0.00 | 0.00 | 0.00 | 35 | 1006.4 |
| 20260509224553 | 23 | 264 | 0.0 | 0.0 | 0.00 | 0.00 | 0.00 | 37 | 1006.3 |
| 20260509223051 | 23 | 264 | 0.0 | 0.0 | 0.00 | 0.00 | 0.00 | 34 | 1006.4 |
| 20260509221548 | 22 | 264 | 0.0 | 0.0 | 0.00 | 0.00 | 0.00 | 36 | 1006.4 |
| 20260509220047 | 22 | 264 | 0.0 | 3.2 | 0.00 | 0.00 | 0.00 | 35 | 1006.4 |
| 20260509214545 | 22 | 258 | 0.0 | 4.8 | 0.00 | 0.00 | 0.00 | 36 | 1006.5 |
| 20260509213044 | 22 | 285 | 0.0 | 4.8 | 0.00 | 0.00 | 0.00 | 35 | 1006.4 |
| 20260509211540 | 23 | 290 | 4.8 | 12.9 | 0.00 | 0.00 | 0.00 | 33 | 1006.2 |
| 20260509210044 | 23 | 231 | 4.8 | 14.5 | 0.00 | 0.00 | 0.00 | 33 | 1006.3 |
| 20260509204536 | 23 | 250 | 3.2 | 16.1 | 0.00 | 0.00 | 0.00 | 32 | 1006.1 |
| 20260509203037 | 24 | 263 | 3.2 | 9.7 | 0.00 | 0.00 | 0.00 | 33 | 1006.2 |
| 20260509201525 | 23 | 271 | 6.4 | 20.9 | 0.00 | 0.00 | 0.00 | 35 | 1006.2 |
| 20260509200025 | 23 | 241 | 3.2 | 12.9 | 0.00 | 0.00 | 0.00 | 35 | 1006.2 |
| 20260509194523 | 23 | 155 | 6.4 | 14.5 | 0.00 | 0.00 | 0.00 | 36 | 1006.4 |
| 20260509193014 | 22 | 232 | 6.4 | 17.7 | 0.00 | 0.00 | 0.00 | 37 | 1006.9 |
| 20260509191508 | 21 | 243 | 4.8 | 19.3 | 0.00 | 0.00 | 0.00 | 40 | 1007.0 |
| 20260509190003 | 21 | 179 | 4.8 | 17.7 | 0.00 | 0.00 | 0.00 | 40 | 1007.4 |
| 20260509184605 | 21 | 267 | 3.2 | 11.3 | 0.00 | 0.00 | 0.00 | 42 | 1007.6 |
| 20260509183138 | 21 | 232 | 3.2 | 9.7 | 0.00 | 0.00 | 0.00 | 41 | 1007.4 |
| 20260509181610 | 20 | 214 | 0.0 | 6.4 | 0.00 | 0.00 | 0.00 | 43 | 1007.9 |
| 20260509180052 | 20 | 271 | 1.6 | 9.7 | 0.00 | 0.00 | 0.00 | 43 | 1008.3 |
| 20260509174547 | 20 | 254 | 0.0 | 8.0 | 0.00 | 0.00 | 0.00 | 44 | 1008.4 |
| 20260509173044 | 20 | 233 | 0.0 | 8.0 | 0.00 | 0.00 | 0.00 | 45 | 1008.7 |
| 20260509171544 | 20 | 271 | 3.2 | 14.5 | 0.00 | 0.00 | 0.00 | 42 | 1008.7 |
| 20260509170040 | 21 | 234 | 1.6 | 11.3 | 0.00 | 0.00 | 0.00 | 41 | 1008.6 |
| 20260509164536 | 20 | 230 | 4.8 | 14.5 | 0.00 | 0.00 | 0.00 | 42 | 1008.6 |
| 20260509163033 | 19 | 289 | 1.6 | 9.7 | 0.00 | 0.00 | 0.00 | 45 | 1008.9 |
| 20260509161534 | 19 | 248 | 4.8 | 17.7 | 0.00 | 0.00 | 0.00 | 44 | 1009.0 |
| 20260509160028 | 19 | 209 | 6.4 | 16.1 | 0.00 | 0.00 | 0.00 | 44 | 1008.9 |
| 20260509154525 | 19 | 230 | 6.4 | 14.5 | 0.00 | 0.00 | 0.00 | 42 | 1008.9 |
| 20260509153022 | 19 | 153 | 8.0 | 17.7 | 0.00 | 0.00 | 0.00 | 42 | 1009.2 |
| 20260509151518 | 18 | 270 | 6.4 | 12.9 | 0.00 | 0.00 | 0.00 | 43 | 1009.1 |
| 20260509150017 | 18 | 280 | 3.2 | 11.3 | 0.00 | 0.00 | 0.00 | 44 | 1009.2 |
| 20260509144525 | 17 | 240 | 6.4 | 12.9 | 0.00 | 0.00 | 0.00 | 43 | 1009.3 |
| 20260509143008 | 17 | 226 | 6.4 | 14.5 | 0.00 | 0.00 | 0.00 | 45 | 1009.6 |
| 20260509141507 | 16 | 139 | 3.2 | 9.7 | 0.00 | 0.00 | 0.00 | 46 | 1009.7 |
| 20260509140001 | 16 | 176 | 6.4 | 14.5 | 0.00 | 0.00 | 0.00 | 46 | 1009.8 |
| 20260509134601 | 15 | 250 | 3.2 | 9.7 | 0.00 | 0.00 | 0.00 | 47 | 1009.7 |
| 20260509133051 | 14 | 278 | 0.0 | 6.4 | 0.00 | 0.00 | 0.00 | 49 | 1009.8 |
| 20260509131547 | 13 | 246 | 0.0 | 9.7 | 0.00 | 0.00 | 0.00 | 49 | 1009.8 |
| 20260509130045 | 13 | 265 | 0.0 | 8.0 | 0.00 | 0.00 | 0.00 | 49 | 1009.8 |